Weather History for Clarinda, IA

Change the Weather History Date:

Monday, December 12, 2011

  Actual Average Record
Temperature  
Mean Temperature 40 °F -  
Max Temperature 42 °F 39 °F 53 °F (1998)
Min Temperature 37 °F 20 °F -4 °F (2000)
Degree Days  
Heating Degree Days 26    
Moisture  
Dew Point 32 °F    
Average Humidity 72    
Maximum Humidity 87    
Minimum Humidity 61    
Precipitation  
Precipitation 0.00 in - - ()
Sea Level Pressure  
Sea Level Pressure 30.20 in    
Wind  
Wind Speed 8 mph (South)    
Max Wind Speed 13 mph    
Max Gust Speed 17 mph    
Visibility 10 miles    
Events      
Averages and records for this station are not official NWS values.
T = Trace of Precipitation, MM = Missing Value Source: NWS Daily Summary

Daily Weather History Graph

Daily Weather History Graph

Search for Another Location

Airport:

Trip Planner

Search our weather history database for the weather conditions in past years. The results will help you decide how hot, cold, wet, or windy it might be!

Date:

Astronomy

Dec. 12, 2011 Rise Set
Actual Time 7:34 AM CST 4:52 PM CST
Civil Twilight 7:03 AM CST 5:23 PM CST
Nautical Twilight 6:29 AM CST 5:58 PM CST
Astronomical Twilight 5:56 AM CST 6:31 PM CST
Moon 7:05 PM CST (12/12) 9:06 AM CST (12/12)
Length of Visible Light 10h 19m
Length of Day
9h 18m
Waning Gibbous, 95% of the Moon is Illuminated
Dec 12
Waning Gibbous
Dec 17
Last Quarter
Dec 24
New
Jan 1
First Quarter
Jan 9
Full

Hourly Weather History & Observations

Time (CST) Temp. Windchill Dew Point Humidity Pressure Visibility Wind Dir Wind Speed Gust Speed Precip Events Conditions
12:15 AM 42.8 °F 36.2 °F 30.2 °F 61% 30.17 in 10.0 mi South 12.7 mph 17.3 mph N/A   Overcast
12:35 AM 42.8 °F 36.2 °F 30.2 °F 61% 30.17 in 10.0 mi South 12.7 mph - N/A   Overcast
12:55 AM 41.0 °F 35.2 °F 32.0 °F 70% 30.17 in 10.0 mi South 9.2 mph - N/A   Overcast
1:15 AM 39.2 °F 32.0 °F 32.0 °F 75% 30.17 in 10.0 mi South 11.5 mph - N/A   Overcast
1:35 AM 39.2 °F 32.5 °F 32.0 °F 75% 30.17 in 10.0 mi South 10.4 mph - N/A   Overcast
1:55 AM 39.2 °F 32.5 °F 32.0 °F 75% 30.17 in 10.0 mi South 10.4 mph - N/A   Overcast
2:15 AM 39.2 °F 33.6 °F 32.0 °F 75% 30.17 in 10.0 mi South 8.1 mph - N/A   Overcast
2:55 AM 39.2 °F 33.0 °F 30.2 °F 70% 30.18 in 10.0 mi South 9.2 mph - N/A   Overcast
3:15 AM 39.2 °F 33.0 °F 30.2 °F 70% 30.17 in 10.0 mi South 9.2 mph - N/A   Overcast
3:35 AM 39.2 °F 33.6 °F 30.2 °F 70% 30.17 in 10.0 mi South 8.1 mph - N/A   Overcast
3:55 AM 39.2 °F 33.6 °F 30.2 °F 70% 30.17 in 10.0 mi South 8.1 mph - N/A   Overcast
4:15 AM 39.2 °F 33.6 °F 30.2 °F 70% 30.16 in 10.0 mi South 8.1 mph - N/A   Overcast
4:35 AM 39.2 °F 33.0 °F 30.2 °F 70% 30.16 in 10.0 mi South 9.2 mph - N/A   Overcast
4:55 AM 39.2 °F 34.2 °F 30.2 °F 70% 30.16 in 10.0 mi South 6.9 mph - N/A   Overcast
5:15 AM 39.2 °F 33.0 °F 30.2 °F 70% 30.17 in 10.0 mi South 9.2 mph - N/A   Overcast
5:35 AM 39.2 °F 33.0 °F 30.2 °F 70% 30.17 in 10.0 mi South 9.2 mph - N/A   Overcast
5:55 AM 39.2 °F 33.0 °F 30.2 °F 70% 30.17 in 10.0 mi South 9.2 mph - N/A   Overcast
6:15 AM 39.2 °F 34.2 °F 30.2 °F 70% 30.17 in 10.0 mi South 6.9 mph - N/A   Overcast
6:35 AM 39.2 °F 33.0 °F 30.2 °F 70% 30.17 in 10.0 mi South 9.2 mph - N/A   Overcast
6:55 AM 39.2 °F 33.0 °F 30.2 °F 70% 30.17 in 10.0 mi South 9.2 mph - N/A   Overcast
7:15 AM 37.4 °F 31.4 °F 28.4 °F 70% 30.17 in 10.0 mi South 8.1 mph - N/A   Mostly Cloudy
7:35 AM 37.4 °F 32.8 °F 30.2 °F 75% 30.18 in 10.0 mi South 5.8 mph - N/A   Mostly Cloudy
8:15 AM 37.4 °F 32.8 °F 30.2 °F 75% 30.19 in 10.0 mi South 5.8 mph - N/A   Overcast
8:35 AM 37.4 °F 32.1 °F 30.2 °F 75% 30.20 in 10.0 mi South 6.9 mph - N/A   Overcast
8:55 AM 39.2 °F 33.6 °F 30.2 °F 70% 30.20 in 10.0 mi South 8.1 mph - N/A   Overcast
9:15 AM 39.2 °F 34.2 °F 30.2 °F 70% 30.21 in 10.0 mi South 6.9 mph - N/A   Overcast
9:35 AM 39.2 °F 34.2 °F 30.2 °F 70% 30.21 in 10.0 mi South 6.9 mph - N/A   Overcast
9:55 AM 39.2 °F 33.0 °F 30.2 °F 70% 30.22 in 10.0 mi South 9.2 mph - N/A   Overcast
10:15 AM 39.2 °F 33.6 °F 30.2 °F 70% 30.22 in 10.0 mi South 8.1 mph - N/A   Overcast
10:35 AM 39.2 °F 33.6 °F 30.2 °F 70% 30.22 in 10.0 mi South 8.1 mph - N/A   Overcast
10:55 AM 39.2 °F 34.2 °F 30.2 °F 70% 30.22 in 10.0 mi South 6.9 mph - N/A   Overcast
11:15 AM 39.2 °F 34.2 °F 30.2 °F 70% 30.22 in 10.0 mi South 6.9 mph - N/A   Overcast
11:35 AM 41.0 °F 35.8 °F 30.2 °F 65% 30.21 in 10.0 mi South 8.1 mph - N/A   Overcast
11:55 AM 41.0 °F 37.1 °F 32.0 °F 70% 30.21 in 10.0 mi South 5.8 mph - N/A   Overcast
12:15 PM 42.8 °F 38.6 °F 32.0 °F 66% 30.21 in 10.0 mi South 6.9 mph - N/A   Overcast
12:35 PM 42.8 °F 39.3 °F 32.0 °F 66% 30.20 in 10.0 mi South 5.8 mph - N/A   Overcast
12:55 PM 42.8 °F 38.6 °F 32.0 °F 66% 30.20 in 10.0 mi South 6.9 mph - N/A   Overcast
1:15 PM 42.8 °F 40.1 °F 33.8 °F 70% 30.20 in 10.0 mi South 4.6 mph - N/A   Overcast
1:35 PM 42.8 °F 41.1 °F 33.8 °F 70% 30.20 in 10.0 mi South 3.5 mph - N/A   Overcast
1:55 PM 42.8 °F 38.6 °F 32.0 °F 66% 30.20 in 10.0 mi South 6.9 mph - N/A   Overcast
2:15 PM 42.8 °F 39.3 °F 33.8 °F 70% 30.19 in 10.0 mi South 5.8 mph - N/A   Overcast
2:35 PM 42.8 °F 40.1 °F 33.8 °F 70% 30.20 in 10.0 mi South 4.6 mph - N/A   Overcast
2:55 PM 42.8 °F 40.1 °F 33.8 °F 70% 30.20 in 10.0 mi South 4.6 mph - N/A   Overcast
3:35 PM 42.8 °F 41.1 °F 33.8 °F 70% 30.21 in 10.0 mi South 3.5 mph - N/A   Overcast
3:55 PM 42.8 °F 41.1 °F 33.8 °F 70% 30.21 in 10.0 mi SSE 3.5 mph - N/A   Overcast
4:15 PM 42.8 °F - 33.8 °F 70% 30.22 in 10.0 mi Calm Calm - N/A   Overcast
4:35 PM 41.0 °F - 33.8 °F 76% 30.22 in 10.0 mi Calm Calm - N/A   Overcast
4:55 PM 41.0 °F - 33.8 °F 76% 30.22 in 10.0 mi Calm Calm - N/A   Overcast
5:15 PM 39.2 °F - 33.8 °F 81% 30.22 in 10.0 mi Calm Calm - N/A   Overcast
5:35 PM 39.2 °F - 33.8 °F 81% 30.23 in 10.0 mi Calm Calm - N/A   Overcast
5:55 PM 39.2 °F - 33.8 °F 81% 30.23 in 10.0 mi Calm Calm - N/A   Overcast
6:15 PM 39.2 °F - 33.8 °F 81% 30.24 in 10.0 mi Calm Calm - N/A   Overcast
6:35 PM 39.2 °F - 33.8 °F 81% 30.24 in 10.0 mi Calm Calm - N/A   Overcast
6:55 PM 39.2 °F - 33.8 °F 81% 30.25 in 10.0 mi Calm Calm - N/A   Overcast
7:15 PM 39.2 °F - 33.8 °F 81% 30.26 in 10.0 mi Calm Calm - N/A   Overcast
7:35 PM 39.2 °F - 33.8 °F 81% 30.26 in 10.0 mi Calm Calm - N/A   Overcast
7:55 PM 39.2 °F - 33.8 °F 81% 30.27 in 10.0 mi Calm Calm - N/A   Overcast
8:15 PM 39.2 °F - 33.8 °F 81% 30.27 in 10.0 mi Calm Calm - N/A   Overcast
8:35 PM 39.2 °F - 33.8 °F 81% 30.27 in 10.0 mi Calm Calm - N/A   Overcast
8:55 PM 37.4 °F - 33.8 °F 87% 30.27 in 10.0 mi Calm Calm - N/A   Overcast
9:15 PM 37.4 °F - 33.8 °F 87% 30.26 in 10.0 mi Calm Calm - N/A   Overcast
9:35 PM 39.2 °F - 33.8 °F 81% 30.27 in 10.0 mi Calm Calm - N/A   Overcast
9:55 PM 37.4 °F - 33.8 °F 87% 30.27 in 10.0 mi Calm Calm - N/A   Overcast
10:15 PM 37.4 °F - 33.8 °F 87% 30.28 in 10.0 mi Calm Calm - N/A   Overcast
10:35 PM 37.4 °F - 33.8 °F 87% 30.28 in 10.0 mi Calm Calm - N/A   Overcast
10:55 PM 37.4 °F - 33.8 °F 87% 30.28 in 10.0 mi Calm Calm - N/A   Overcast
11:15 PM 37.4 °F - 33.8 °F 87% 30.27 in 10.0 mi Calm Calm - N/A   Overcast
11:35 PM 37.4 °F - 33.8 °F 87% 30.27 in 10.0 mi Calm Calm - N/A   Overcast
11:55 PM 37.4 °F - 33.8 °F 87% 30.28 in 10.0 mi Calm Calm - N/A   Overcast